SCP
-0 -0 0 -0 -0 -0 -0 -0 -0 -0 -0 -0 -0 -0 -0 -0 -0 -0 -0 -0 -0 0 0 0 0 0 0 0 0 0 0 0 0 0 0 0 0 0 0 0 0 -0 0 -0 -0 0 0
0 0 -0 -0 -0 -0 -0 -0 -0 -0 -0 -0 -0 -0 -0 -0 -0 -0 -0 -0 -0 -0 0 0 0 0 0 0 0 0 0 0 0 0 0 0 0 0 0 0 0 0 0 0 -0 0 -0
0 -0 -0 -0 -0 -0 -0 -0 -0 -0 -0 -0 -0 -0 -0 -0 -0 -0 -0 -0 -0 -0 0 0 0 0 0 0 0 0 0 0 0 0 0 0 0 0 0 0 0 0 0 0 0 -0 -0
-0 -0 -0 -0 0 0 -0 -0 -0 -0 -0 -0 -0 -0 -0 -0 -0 -0 -0 -0 -0 -0 -0 0 0 -0 -0 0 0 -0 -0 -0 0 0 0 0 0 0 0 0 0 0 0 0 0 0 0
-0 -0 -0 -0 -0 -0 -0 0 -0 -0 -0 -0 -0 -0 -0 -0 -0 -0 -0 -0 -0 -0 -0 0 0 0 0 0 0 -0 0 0 0 0 0 0 0 0 0 0 0 0 0 0 0 0 0
-0 -0 -0 -0 -0 -0 -0 -0 -0 -0 -0 -0 -0 -0 -0 -0 -0 -0 -0 -0 -0 -0 -0 0 0 0 0 0 0 0 0 0 0 0 0 0 0 0 0 0 0 0 0 0 -0 0 0
-0 -0 -0 -0 -0 -0 -0 -0 -0 -0 -0 -0 -0 -0 -0 -0 -0 -0 -0 -0 0 0 -0 0 -0 0 0 0 0 0 0 0 0 0 0 0 0 0 0 0 0 0 -0 0 0 0 0
0 0 -0 -0 -0 -0 -0 -0 -0 -0 -0 -0 -0 -0 -0 -0 -0 -0 0 0 0 0 -0 -0 -0 0 0 0 0 0 0 0 0 0 0 0 0 0 0 0 0 0 0 0 0 0 0
0 0 0 0 -0 -0 -0 -0 -0 -0 -0 -0 -0 -0 -0 -0 -0 0 0 0 0 0 -0 -0 0 0 -0 0 0 0 0 0 0 0 0 0 0 0 0 0 0 0 0 0 0 0 0
0 0 0 0 -0 -0 -0 -0 -0 -0 -0 -0 -0 -0 -0 -0 0 0 -0 -0 -0 0 0 -0 0 0 0 0 0 0 0 0 0 0 0 0 0 0 0 0 0 0 0 0 0 0 0
0 0 0 0 0 -0 -0 -0 -0 -0 -0 -0 -0 -0 -0 -0 0 -0 0 0 0 0 0 0 -0 0 0 0 0 0 0 0 0 0 0 0 0 0 0 0 0 0 0 0 0 0 0
0 0 0 0 -0 -0 -0 -0 -0 -0 -0 -0 -0 -0 -0 0 0 0 0 0 -0 0 0 0 0 0 0 0 0 0 0 0 0 0 0 0 0 0 0 0 0 0 0 0 0 0 0
-0 0 0 0 -0 -0 -0 -0 -0 -0 -0 -0 -0 -0 0 0 0 0 0 -0 0 0 0 0 0 0 0 0 0 0 0 0 0 0 0 0 0 -0 -0 0 0 -0 0 0 0 0 0
0 0 0 0 -0 -0 -0 -0 -0 -0 -0 -0 -0 -0 0 0 0 0 0 0 0 0 0 0 0 0 0 0 0 0 0 0 0 0 0 0 0 0 0 0 0 0 0 0 0 0 0
0 0 -0 -0 0 0 -0 -0 -0 -0 -0 -0 -0 0 0 0 0 0 0 0 0 0 0 0 0 0 0 0 0 0 0 0 0 0 0 0 0 0 0 0 0 0 0 0 0 0 0
0 0 0 0 0 0 0 0 -0 -0 -0 -0 0 0 0 0 0 0 0 0 0 0 0 0 0 0 0 0 0 0 0 0 0 0 0 0 0 0 0 0 -0 0 0 0 0 0 0
0 0 0 0 0 0 0 0 0 0 -0 0 0 0 0 0 0 0 0 0 0 0 0 0 0 0 0 0 0 0 0 0 0 0 0 0 0 -0 0 0 0 0 0 0 0 0 0
0 0 0 0 0 0 0 0 0 0 0 0 0 0 0 0 0 0 0 0 0 0 0 0 0 0 0 0 0 0 0 0 0 0 0 -0 0 0 0 0 0 0 0 0 0 0 0
0 0 0 0 0 0 0 0 0 0 0 0 0 0 0 0 0 0 0 0 0 0 0 0 0 0 0 0 0 0 0 0 0 0 0 -0 0 0 0 0 -0 0 0 0 0 0 0
0 0 0 0 0 0 0 0 0 0 0 0 0 0 0 0 0 0 0 0 0 0 0 0 0 0 0 0 0 0 0 0 0 0 0 0 0 0 0 0 -0 0 0 0 0 0 0
0 0 0 0 0 0 0 0 0 0 0 0 0 0 0 0 0 0 0 0 0 0 0 0 0 0 0 0 0 0 0 0 0 0 0 0 -0 0 0 0 0 0 0 0 0 0 0
0 0 0 0 0 0 0 0 0 0 0 0 0 0 0 0 0 0 0 0 0 0 0 0 0 0 0 0 0 0 0 0 0 0 0 0 -0 0 0 -0 0 0 0 0 0 0 0
0 0 0 0 0 0 0 0 0 0 0 0 0 0 0 0 0 0 0 0 0 0 0 0 0 0 0 0 0 0 0 0 0 0 0 0 0 0 -0 -0 0 0 0 0 0 0 1
0 0 0 0 0 0 0 0 0 0 0 0 0 0 0 0 0 0 0 0 0 0 0 0 0 0 0 0 -0 0 0 -0 -0 0 0 -0 0 0 0 0 0 0 0 0 0 0 1
0 0 0 0 0 0 0 0 0 0 0 0 0 0 0 0 0 0 0 0 0 0 0 0 0 0 0 0 0 -0 -0 -0 -0 0 -0 0 0 0 0 0 0 0 0 0 0 0 0
0 0 0 0 0 0 0 0 0 0 0 0 0 0 0 0 0 0 0 0 0 0 0 0 0 0 0 0 0 -0 -0 -0 0 0 0 0 0 0 0 0 0 0 0 1 0 0 1
0 0 0 0 0 0 0 0 0 0 0 0 0 0 0 0 0 0 0 0 0 0 0 0 0 0 0 0 -0 -0 -0 -0 0 0 0 0 0 0 0 0 0 0 0 0 0 0 0
0 0 0 0 0 0 0 0 0 0 0 0 0 0 0 0 0 0 0 0 0 0 0 0 0 0 0 -0 -0 -0 -0 -0 0 0 0 0 0 0 0 0 0 0 0 0 0 1 -0
0 0 0 0 0 0 0 0 0 0 0 0 0 0 0 0 0 0 0 0 0 0 0 0 0 0 0 -0 0 -0 -0 -0 -0 0 0 0 0 0 0 0 0 0 0 0 0 0 -0
Wind_Speed_500mb
22 26 29 30 29 30 31 31 32 34 33 34 34 35 35 31 31 28 26 28 27 29 27 26 24 26 19 9 10 8 14 8 1 8 17 6 4 2 3 7 19 10 14 16 49 56 35
29 31 32 33 34 35 37 37 36 35 35 36 36 34 34 33 30 28 28 27 23 25 24 24 21 20 18 10 8 4 8 10 9 11 16 6 3 21 20 11 6 19 32 39 27 26 25
32 34 33 33 34 35 37 38 37 38 39 39 38 36 36 35 30 26 26 26 22 21 22 22 19 20 25 26 13 17 7 4 4 12 11 5 22 15 17 13 10 21 15 21 20 13 15
31 30 32 34 39 42 43 42 44 46 44 42 41 41 37 34 34 28 25 26 22 17 17 18 17 20 20 3 21 37 19 12 9 10 15 19 20 21 3 13 18 9 8 9 16 11 14
27 28 30 35 38 41 44 47 47 46 45 46 44 40 35 32 29 24 22 24 18 9 7 13 12 10 23 14 33 45 34 23 8 15 15 20 15 8 11 7 11 11 6 7 19 9 6
28 29 32 34 37 41 43 45 46 47 47 44 42 39 34 28 21 22 24 14 15 13 4 8 10 9 16 4 9 30 39 26 26 17 26 19 4 4 8 8 10 12 6 8 11 16 4
29 31 32 36 39 42 45 48 50 48 45 43 42 38 28 18 16 29 32 3 12 7 33 17 9 18 11 10 13 16 32 23 26 20 9 7 7 15 22 15 10 9 8 14 14 19 4
31 32 33 35 39 42 45 47 47 45 43 41 38 35 27 10 16 22 35 34 26 27 24 33 41 54 46 35 19 11 26 20 17 11 2 5 17 23 14 15 14 14 16 30 27 25 15
32 33 35 38 41 44 49 52 48 45 43 41 38 32 27 6 20 21 23 27 12 27 8 23 16 26 46 17 17 24 28 37 9 11 12 15 18 14 16 18 14 16 15 30 23 18 9
33 37 39 39 42 49 57 55 51 46 42 41 39 31 27 3 5 15 14 8 8 22 6 8 5 3 8 19 11 33 35 23 6 16 8 13 27 23 17 19 14 16 16 26 23 5 17
33 35 38 41 45 50 55 55 50 44 39 36 36 29 23 21 13 23 28 9 10 6 10 5 4 4 12 18 11 9 33 38 16 14 11 17 5 17 24 30 13 24 25 22 23 11 1
32 35 39 43 45 49 53 54 48 41 35 31 30 26 20 16 19 24 21 15 9 8 8 17 15 10 7 14 9 10 5 24 20 8 9 16 36 9 12 25 19 19 12 10 7 7 1
33 36 39 42 45 48 51 53 49 41 34 28 22 18 25 25 28 22 27 11 9 10 16 17 13 13 9 3 10 6 5 10 11 2 10 17 21 13 18 17 26 7 9 10 8 3 10
32 36 40 43 44 46 50 52 48 41 33 28 15 13 22 35 34 29 31 9 17 9 13 8 15 16 9 21 10 17 10 9 9 10 4 4 19 10 15 16 20 16 18 12 12 5 6
32 37 40 43 44 46 48 50 47 40 34 27 24 6 14 29 40 31 15 11 5 10 19 16 11 11 13 16 16 19 13 8 8 6 14 13 21 24 36 19 14 20 12 17 11 5 2
31 34 39 42 44 45 48 50 47 39 32 27 20 9 6 20 36 16 10 2 5 10 18 11 11 9 12 16 17 22 11 7 22 8 34 13 27 20 31 7 29 18 10 5 5 15 10
29 32 35 39 42 44 46 48 47 41 32 28 19 8 6 16 26 11 7 7 7 33 36 12 4 7 7 14 9 14 12 21 9 42 20 10 6 17 17 19 31 11 7 6 10 11 10
29 30 33 36 40 41 43 45 46 43 32 23 11 5 11 21 9 5 2 9 26 21 36 15 16 13 7 14 10 10 12 13 51 42 34 8 10 11 30 43 15 13 16 18 11 13 6
30 31 31 34 38 40 40 41 42 37 34 31 18 9 7 14 5 6 13 8 10 20 14 11 7 8 6 5 11 9 19 37 51 33 4 11 7 10 27 17 9 12 18 10 12 10 16
28 28 28 33 38 39 41 41 41 31 22 20 11 7 6 6 10 7 11 8 12 28 18 12 12 13 9 11 9 15 34 20 40 37 7 4 8 14 24 24 8 9 30 23 15 11 15
27 27 29 30 29 32 37 38 38 28 16 12 8 5 12 6 7 12 7 7 8 9 6 18 9 11 10 7 13 12 28 21 37 39 8 3 12 9 40 62 44 25 14 25 18 26 19
26 25 26 28 31 34 38 37 34 24 8 2 7 9 12 17 18 12 7 6 9 11 15 16 12 26 23 12 15 31 12 11 15 8 9 8 8 20 51 44 41 28 35 20 25 16 9
24 25 25 25 29 32 36 36 32 23 7 3 1 3 4 10 9 4 6 8 16 18 17 19 37 31 27 30 46 55 50 58 33 15 14 10 3 15 15 26 25 27 15 10 16 13 23
22 23 23 24 27 30 34 35 30 23 12 19 6 6 4 7 2 6 25 28 20 14 16 46 50 28 25 59 68 48 64 59 43 35 31 13 7 7 17 10 25 10 6 12 14 11 11
22 21 22 22 25 28 31 33 27 21 12 29 15 2 5 6 12 28 23 15 38 52 33 40 51 31 60 39 11 12 11 9 19 48 27 26 17 8 10 10 2 4 10 6 8 6 15
22 21 22 22 24 25 27 27 23 21 12 26 29 18 12 11 11 12 14 23 16 11 11 14 60 47 28 8 6 7 7 8 14 27 39 30 33 18 9 6 12 3 11 26 5 8 11
22 22 22 22 23 23 24 24 24 18 15 19 24 29 18 13 36 14 6 8 11 13 12 30 32 39 13 4 5 8 8 1 7 18 15 11 11 29 22 12 7 12 14 29 7 15 46
21 20 21 21 21 22 22 21 20 16 16 17 21 30 27 20 52 69 65 49 43 28 10 30 24 7 11 5 3 5 4 2 6 16 17 9 6 11 10 4 3 18 18 7 10 51 67
19 18 20 20 21 22 21 19 17 13 13 17 22 20 29 35 45 64 71 70 74 67 52 22 17 19 12 6 6 8 8 3 10 7 8 7 6 8 7 6 31 55 38 13 22 67 54
Wind_Direction_500mb
37 34 27 21 13 9 5 2 357 351 350 346 344 341 338 337 331 324 312 310 299 285 279 288 302 315 336 295 253 233 300 310 18 150 148 145 44 71 236 257 334 210 285 240 257 280 267
32 28 22 17 11 6 3 1 359 357 354 350 348 343 337 334 328 322 314 307 309 293 275 269 287 303 312 290 203 222 320 278 195 161 190 180 0 322 282 273 149 298 316 306 304 284 252
29 21 14 9 8 7 4 0 359 358 355 352 350 347 342 337 330 318 311 311 311 291 270 255 264 282 276 241 192 205 201 112 205 188 201 320 334 317 306 323 334 325 333 327 307 312 238
22 15 9 7 7 5 3 0 356 354 352 350 349 346 345 341 334 330 327 319 305 286 267 244 250 280 264 179 236 219 217 190 182 240 281 312 317 318 236 314 341 5 46 350 291 345 279
19 13 9 9 6 3 0 356 353 350 347 345 344 343 344 346 343 346 344 321 330 321 244 222 242 264 265 257 229 222 215 217 195 242 258 276 298 339 333 65 4 358 233 246 310 220 276
16 11 10 7 6 3 358 355 353 348 345 343 341 340 344 353 359 21 9 34 33 53 59 206 221 294 252 328 243 228 213 220 226 234 241 250 279 48 12 86 213 231 272 280 241 282 11
12 11 8 5 5 2 358 354 352 351 349 346 343 341 349 9 35 33 44 37 12 7 320 247 286 254 269 335 265 229 189 206 207 249 192 216 106 221 224 211 201 256 263 266 274 279 296
8 7 6 4 2 360 356 355 352 352 353 352 348 344 354 53 54 43 56 50 25 329 296 284 259 255 253 289 309 190 192 196 212 230 96 310 224 226 216 242 229 242 256 269 284 263 181
4 2 3 3 1 357 357 357 358 359 358 356 355 354 357 85 50 55 63 33 18 352 307 295 249 238 247 228 228 260 199 204 164 188 216 192 235 200 222 262 250 251 227 261 242 302 261
1 1 0 358 0 360 358 357 358 358 359 357 358 1 3 113 15 33 26 6 9 349 44 265 249 215 200 193 273 247 242 220 188 217 212 232 248 245 247 239 209 254 217 253 268 250 262
359 359 358 358 0 0 359 357 357 356 358 0 1 5 3 22 0 2 341 335 346 322 64 184 141 70 166 167 331 18 221 210 191 214 113 243 249 214 244 241 214 247 265 243 258 214 178
356 355 357 358 359 0 358 356 355 356 358 2 5 10 17 7 358 352 3 341 345 42 60 357 28 51 47 267 295 299 88 223 225 204 244 245 272 247 254 261 241 251 304 273 49 124 41
354 354 357 358 358 358 358 356 355 356 357 3 14 31 33 18 3 8 354 10 46 59 333 0 351 328 314 266 264 215 233 164 195 261 283 294 279 288 274 289 287 230 79 293 296 343 206
353 352 354 356 356 356 356 355 355 355 355 358 357 37 33 25 14 0 4 48 65 352 37 335 347 325 23 25 339 343 309 295 276 150 169 226 300 224 241 205 225 227 177 194 199 241 234
352 352 351 351 353 354 354 355 355 354 351 3 7 71 34 29 8 353 359 52 149 353 0 356 347 24 346 17 349 12 0 285 9 223 212 208 249 252 257 261 155 270 209 198 159 207 75
347 349 348 348 350 351 353 354 353 354 348 352 359 350 12 11 354 347 61 286 348 337 352 31 43 37 353 333 341 9 320 323 336 63 15 314 284 240 261 302 280 202 198 194 350 175 218
340 344 345 344 346 349 352 353 351 353 349 347 354 344 11 349 345 27 106 257 323 2 21 349 61 309 330 338 358 324 253 323 13 338 16 311 253 294 280 200 245 300 235 76 123 149 191
332 337 339 341 343 348 351 353 352 350 358 349 10 20 7 341 13 28 43 347 345 352 10 14 3 14 32 332 298 311 265 305 332 337 327 29 261 271 258 257 197 207 258 162 154 224 240
328 331 335 339 340 344 349 351 352 349 355 5 350 308 351 340 75 338 327 335 337 24 0 354 325 28 352 313 317 243 306 319 309 316 309 348 336 340 321 283 224 197 228 237 122 114 202
322 324 330 333 336 340 346 349 350 346 346 359 2 0 4 341 63 19 358 306 349 334 310 330 297 333 326 304 226 281 302 307 336 322 32 284 206 196 256 265 222 218 232 194 160 134 199
319 319 327 331 330 337 342 345 344 340 332 358 25 5 10 338 334 337 357 296 302 307 322 358 320 310 301 274 285 269 296 300 302 301 232 144 240 240 270 261 251 238 261 187 182 196 178
312 313 319 325 328 335 340 342 338 335 302 331 22 8 351 308 315 324 325 295 293 348 351 309 287 318 308 263 245 294 234 239 241 268 175 234 246 304 284 264 226 234 251 246 217 165 136
305 308 315 321 325 333 337 340 337 333 265 173 66 296 332 287 320 0 240 333 323 344 304 300 315 306 293 287 298 284 266 269 237 194 186 199 158 0 271 205 196 223 236 222 212 169 145
301 305 310 317 323 331 335 337 337 331 246 208 151 11 343 274 283 308 317 316 309 313 286 298 299 287 291 307 308 291 271 257 231 226 190 192 125 190 277 219 186 210 226 197 111 4 115
297 298 304 313 320 327 334 336 335 333 275 213 195 191 307 284 305 298 311 330 329 316 292 283 288 282 310 306 275 284 279 287 240 229 210 213 199 244 252 173 234 56 35 306 142 300 178
292 295 300 307 313 320 331 333 329 331 291 223 208 226 265 304 260 308 316 304 296 305 301 267 311 316 304 239 220 244 294 263 337 322 214 204 198 200 325 184 174 227 297 334 20 15 180
284 289 296 303 309 315 327 330 331 323 307 231 212 221 244 271 282 292 271 296 275 293 285 304 337 325 298 279 243 271 268 1 320 305 8 156 165 208 230 258 254 258 313 341 95 205 168
280 283 288 297 305 310 321 324 324 318 310 249 224 224 244 267 278 277 272 263 263 269 257 298 327 0 317 329 273 249 266 112 293 318 294 281 264 178 218 164 280 306 332 214 184 151 164
279 282 289 298 303 306 315 315 312 309 295 265 256 246 260 267 265 282 283 272 271 283 266 252 244 308 279 306 15 310 242 144 65 282 295 294 100 271 321 226 106 261 241 147 142 160 168
Wind_Speed_850mb
22 26 29 30 29 30 31 31 32 34 33 34 34 35 35 31 31 28 26 28 27 29 27 26 24 26 19 9 10 8 14 8 1 8 17 6 4 2 3 7 19 10 14 16 49 56 35
29 31 32 33 34 35 37 37 36 35 35 36 36 34 34 33 30 28 28 27 23 25 24 24 21 20 18 10 8 4 8 10 9 11 16 6 3 21 20 11 6 19 32 39 27 26 25
32 34 33 33 34 35 37 38 37 38 39 39 38 36 36 35 30 26 26 26 22 21 22 22 19 20 25 26 13 17 7 4 4 12 11 5 22 15 17 13 10 21 15 21 20 13 15
31 30 32 34 39 42 43 42 44 46 44 42 41 41 37 34 34 28 25 26 22 17 17 18 17 20 20 3 21 37 19 12 9 10 15 19 20 21 3 13 18 9 8 9 16 11 14
27 28 30 35 38 41 44 47 47 46 45 46 44 40 35 32 29 24 22 24 18 9 7 13 12 10 23 14 33 45 34 23 8 15 15 20 15 8 11 7 11 11 6 7 19 9 6
28 29 32 34 37 41 43 45 46 47 47 44 42 39 34 28 21 22 24 14 15 13 4 8 10 9 16 4 9 30 39 26 26 17 26 19 4 4 8 8 10 12 6 8 11 16 4
29 31 32 36 39 42 45 48 50 48 45 43 42 38 28 18 16 29 32 3 12 7 33 17 9 18 11 10 13 16 32 23 26 20 9 7 7 15 22 15 10 9 8 14 14 19 4
31 32 33 35 39 42 45 47 47 45 43 41 38 35 27 10 16 22 35 34 26 27 24 33 41 54 46 35 19 11 26 20 17 11 2 5 17 23 14 15 14 14 16 30 27 25 15
32 33 35 38 41 44 49 52 48 45 43 41 38 32 27 6 20 21 23 27 12 27 8 23 16 26 46 17 17 24 28 37 9 11 12 15 18 14 16 18 14 16 15 30 23 18 9
33 37 39 39 42 49 57 55 51 46 42 41 39 31 27 3 5 15 14 8 8 22 6 8 5 3 8 19 11 33 35 23 6 16 8 13 27 23 17 19 14 16 16 26 23 5 17
33 35 38 41 45 50 55 55 50 44 39 36 36 29 23 21 13 23 28 9 10 6 10 5 4 4 12 18 11 9 33 38 16 14 11 17 5 17 24 30 13 24 25 22 23 11 1
32 35 39 43 45 49 53 54 48 41 35 31 30 26 20 16 19 24 21 15 9 8 8 17 15 10 7 14 9 10 5 24 20 8 9 16 36 9 12 25 19 19 12 10 7 7 1
33 36 39 42 45 48 51 53 49 41 34 28 22 18 25 25 28 22 27 11 9 10 16 17 13 13 9 3 10 6 5 10 11 2 10 17 21 13 18 17 26 7 9 10 8 3 10
32 36 40 43 44 46 50 52 48 41 33 28 15 13 22 35 34 29 31 9 17 9 13 8 15 16 9 21 10 17 10 9 9 10 4 4 19 10 15 16 20 16 18 12 12 5 6
32 37 40 43 44 46 48 50 47 40 34 27 24 6 14 29 40 31 15 11 5 10 19 16 11 11 13 16 16 19 13 8 8 6 14 13 21 24 36 19 14 20 12 17 11 5 2
31 34 39 42 44 45 48 50 47 39 32 27 20 9 6 20 36 16 10 2 5 10 18 11 11 9 12 16 17 22 11 7 22 8 34 13 27 20 31 7 29 18 10 5 5 15 10
29 32 35 39 42 44 46 48 47 41 32 28 19 8 6 16 26 11 7 7 7 33 36 12 4 7 7 14 9 14 12 21 9 42 20 10 6 17 17 19 31 11 7 6 10 11 10
29 30 33 36 40 41 43 45 46 43 32 23 11 5 11 21 9 5 2 9 26 21 36 15 16 13 7 14 10 10 12 13 51 42 34 8 10 11 30 43 15 13 16 18 11 13 6
30 31 31 34 38 40 40 41 42 37 34 31 18 9 7 14 5 6 13 8 10 20 14 11 7 8 6 5 11 9 19 37 51 33 4 11 7 10 27 17 9 12 18 10 12 10 16
28 28 28 33 38 39 41 41 41 31 22 20 11 7 6 6 10 7 11 8 12 28 18 12 12 13 9 11 9 15 34 20 40 37 7 4 8 14 24 24 8 9 30 23 15 11 15
27 27 29 30 29 32 37 38 38 28 16 12 8 5 12 6 7 12 7 7 8 9 6 18 9 11 10 7 13 12 28 21 37 39 8 3 12 9 40 62 44 25 14 25 18 26 19
26 25 26 28 31 34 38 37 34 24 8 2 7 9 12 17 18 12 7 6 9 11 15 16 12 26 23 12 15 31 12 11 15 8 9 8 8 20 51 44 41 28 35 20 25 16 9
24 25 25 25 29 32 36 36 32 23 7 3 1 3 4 10 9 4 6 8 16 18 17 19 37 31 27 30 46 55 50 58 33 15 14 10 3 15 15 26 25 27 15 10 16 13 23
22 23 23 24 27 30 34 35 30 23 12 19 6 6 4 7 2 6 25 28 20 14 16 46 50 28 25 59 68 48 64 59 43 35 31 13 7 7 17 10 25 10 6 12 14 11 11
22 21 22 22 25 28 31 33 27 21 12 29 15 2 5 6 12 28 23 15 38 52 33 40 51 31 60 39 11 12 11 9 19 48 27 26 17 8 10 10 2 4 10 6 8 6 15
22 21 22 22 24 25 27 27 23 21 12 26 29 18 12 11 11 12 14 23 16 11 11 14 60 47 28 8 6 7 7 8 14 27 39 30 33 18 9 6 12 3 11 26 5 8 11
22 22 22 22 23 23 24 24 24 18 15 19 24 29 18 13 36 14 6 8 11 13 12 30 32 39 13 4 5 8 8 1 7 18 15 11 11 29 22 12 7 12 14 29 7 15 46
21 20 21 21 21 22 22 21 20 16 16 17 21 30 27 20 52 69 65 49 43 28 10 30 24 7 11 5 3 5 4 2 6 16 17 9 6 11 10 4 3 18 18 7 10 51 67
19 18 20 20 21 22 21 19 17 13 13 17 22 20 29 35 45 64 71 70 74 67 52 22 17 19 12 6 6 8 8 3 10 7 8 7 6 8 7 6 31 55 38 13 22 67 54
Wind_Direction_850mb
37 34 27 21 13 9 5 2 357 351 350 346 344 341 338 337 331 324 312 310 299 285 279 288 302 315 336 295 253 233 300 310 18 150 148 145 44 71 236 257 334 210 285 240 257 280 267
32 28 22 17 11 6 3 1 359 357 354 350 348 343 337 334 328 322 314 307 309 293 275 269 287 303 312 290 203 222 320 278 195 161 190 180 0 322 282 273 149 298 316 306 304 284 252
29 21 14 9 8 7 4 0 359 358 355 352 350 347 342 337 330 318 311 311 311 291 270 255 264 282 276 241 192 205 201 112 205 188 201 320 334 317 306 323 334 325 333 327 307 312 238
22 15 9 7 7 5 3 0 356 354 352 350 349 346 345 341 334 330 327 319 305 286 267 244 250 280 264 179 236 219 217 190 182 240 281 312 317 318 236 314 341 5 46 350 291 345 279
19 13 9 9 6 3 0 356 353 350 347 345 344 343 344 346 343 346 344 321 330 321 244 222 242 264 265 257 229 222 215 217 195 242 258 276 298 339 333 65 4 358 233 246 310 220 276
16 11 10 7 6 3 358 355 353 348 345 343 341 340 344 353 359 21 9 34 33 53 59 206 221 294 252 328 243 228 213 220 226 234 241 250 279 48 12 86 213 231 272 280 241 282 11
12 11 8 5 5 2 358 354 352 351 349 346 343 341 349 9 35 33 44 37 12 7 320 247 286 254 269 335 265 229 189 206 207 249 192 216 106 221 224 211 201 256 263 266 274 279 296
8 7 6 4 2 360 356 355 352 352 353 352 348 344 354 53 54 43 56 50 25 329 296 284 259 255 253 289 309 190 192 196 212 230 96 310 224 226 216 242 229 242 256 269 284 263 181
4 2 3 3 1 357 357 357 358 359 358 356 355 354 357 85 50 55 63 33 18 352 307 295 249 238 247 228 228 260 199 204 164 188 216 192 235 200 222 262 250 251 227 261 242 302 261
1 1 0 358 0 360 358 357 358 358 359 357 358 1 3 113 15 33 26 6 9 349 44 265 249 215 200 193 273 247 242 220 188 217 212 232 248 245 247 239 209 254 217 253 268 250 262
359 359 358 358 0 0 359 357 357 356 358 0 1 5 3 22 0 2 341 335 346 322 64 184 141 70 166 167 331 18 221 210 191 214 113 243 249 214 244 241 214 247 265 243 258 214 178
356 355 357 358 359 0 358 356 355 356 358 2 5 10 17 7 358 352 3 341 345 42 60 357 28 51 47 267 295 299 88 223 225 204 244 245 272 247 254 261 241 251 304 273 49 124 41
354 354 357 358 358 358 358 356 355 356 357 3 14 31 33 18 3 8 354 10 46 59 333 0 351 328 314 266 264 215 233 164 195 261 283 294 279 288 274 289 287 230 79 293 296 343 206
353 352 354 356 356 356 356 355 355 355 355 358 357 37 33 25 14 0 4 48 65 352 37 335 347 325 23 25 339 343 309 295 276 150 169 226 300 224 241 205 225 227 177 194 199 241 234
352 352 351 351 353 354 354 355 355 354 351 3 7 71 34 29 8 353 359 52 149 353 0 356 347 24 346 17 349 12 0 285 9 223 212 208 249 252 257 261 155 270 209 198 159 207 75
347 349 348 348 350 351 353 354 353 354 348 352 359 350 12 11 354 347 61 286 348 337 352 31 43 37 353 333 341 9 320 323 336 63 15 314 284 240 261 302 280 202 198 194 350 175 218
340 344 345 344 346 349 352 353 351 353 349 347 354 344 11 349 345 27 106 257 323 2 21 349 61 309 330 338 358 324 253 323 13 338 16 311 253 294 280 200 245 300 235 76 123 149 191
332 337 339 341 343 348 351 353 352 350 358 349 10 20 7 341 13 28 43 347 345 352 10 14 3 14 32 332 298 311 265 305 332 337 327 29 261 271 258 257 197 207 258 162 154 224 240
328 331 335 339 340 344 349 351 352 349 355 5 350 308 351 340 75 338 327 335 337 24 0 354 325 28 352 313 317 243 306 319 309 316 309 348 336 340 321 283 224 197 228 237 122 114 202
322 324 330 333 336 340 346 349 350 346 346 359 2 0 4 341 63 19 358 306 349 334 310 330 297 333 326 304 226 281 302 307 336 322 32 284 206 196 256 265 222 218 232 194 160 134 199
319 319 327 331 330 337 342 345 344 340 332 358 25 5 10 338 334 337 357 296 302 307 322 358 320 310 301 274 285 269 296 300 302 301 232 144 240 240 270 261 251 238 261 187 182 196 178
312 313 319 325 328 335 340 342 338 335 302 331 22 8 351 308 315 324 325 295 293 348 351 309 287 318 308 263 245 294 234 239 241 268 175 234 246 304 284 264 226 234 251 246 217 165 136
305 308 315 321 325 333 337 340 337 333 265 173 66 296 332 287 320 0 240 333 323 344 304 300 315 306 293 287 298 284 266 269 237 194 186 199 158 0 271 205 196 223 236 222 212 169 145
301 305 310 317 323 331 335 337 337 331 246 208 151 11 343 274 283 308 317 316 309 313 286 298 299 287 291 307 308 291 271 257 231 226 190 192 125 190 277 219 186 210 226 197 111 4 115
297 298 304 313 320 327 334 336 335 333 275 213 195 191 307 284 305 298 311 330 329 316 292 283 288 282 310 306 275 284 279 287 240 229 210 213 199 244 252 173 234 56 35 306 142 300 178
292 295 300 307 313 320 331 333 329 331 291 223 208 226 265 304 260 308 316 304 296 305 301 267 311 316 304 239 220 244 294 263 337 322 214 204 198 200 325 184 174 227 297 334 20 15 180
284 289 296 303 309 315 327 330 331 323 307 231 212 221 244 271 282 292 271 296 275 293 285 304 337 325 298 279 243 271 268 1 320 305 8 156 165 208 230 258 254 258 313 341 95 205 168
280 283 288 297 305 310 321 324 324 318 310 249 224 224 244 267 278 277 272 263 263 269 257 298 327 0 317 329 273 249 266 112 293 318 294 281 264 178 218 164 280 306 332 214 184 151 164
279 282 289 298 303 306 315 315 312 309 295 265 256 246 260 267 265 282 283 272 271 283 266 252 244 308 279 306 15 310 242 144 65 282 295 294 100 271 321 226 106 261 241 147 142 160 168